Regional Weather Roundup
Issued by NWS

Home | Current Version | Previous Version | Graphics & Text | Print | Product List | Glossary On
Versions: 1 2 3 4 5 6 7 8 9 10 11 12 13 14 15 16 17 18 19 20 21 22 23 24 25 26 27 28 29 30 31 32 33 34 35 36 37 38 39 40 41 42 43 44 45 46 47 48 49 50
000
ASUS45 KABQ 262101
RWRNM
WEATHER ROUNDUP FOR NEW MEXICO
NATIONAL WEATHER SERVICE ALBUQUERQUE NM
200 PM MST THU FEB 26 2015

NOTE: "FAIR" MEANS FEW OR NO CLOUDS BELOW 12,000 FEET AGL WITH NO
       SIGNIFICANT WEATHER OR OBSTRUCTIONS TO VISION.

      THIS PRODUCT IS RELEASED AS TWO VERSIONS.  ONE VERSION NEAR
      THE TOP OF THE HOUR CONTAINING PRELIMINARY DATA FROM ALBUQUERQUE
      AND OTHER STATIONS.  A FINAL VERSION WITH ADDITIONAL DATA IS
      ISSUED ABOUT 10 MINUTES AFTER THE HOUR.

NMZ501-503-504-510>518-262200-
NORTHWEST PLATEAU/NORTHCENTRAL MOUNTAINS

CITY           SKY/WX    TMP DP  RH WIND       PRES   REMARKS
FARMINGTON     SUNNY     43  22  43 VRB3      29.90F
SANTA FE       CLOUDY    28  17  63 SE20      30.01F WCI  15
TAOS           CLOUDY    30  19  64 SW18G24   29.95F WCI  18
ANGEL FIRE     LGT SNOW  22  17  79 S14       29.92F WCI  10

$$
NMZ402-403-502-505>509-262200-
WESTCENTRAL MOUNTAINS/SOUTHWEST MOUNTAINS

CITY           SKY/WX    TMP DP  RH WIND       PRES   REMARKS
GALLUP         PTSUNNY   43  25  49 W7        29.92F
GRANTS         PTSUNNY   45  18  34 SE16G25   29.93F
SILVER CITY    FAIR      55  19  24 S14G29    29.94F

$$
NMZ407-409-411-412-262200-
SOUTHERN DESERTS

CITY           SKY/WX    TMP DP  RH WIND       PRES   REMARKS
DEMING         FAIR      60  22  23 MISG      29.93F
HOLLOMAN AFB   MOSUNNY   54  26  34 S20       29.96F
ALAMOGORDO     MOSUNNY   54  27  35 S16G22    29.97F
T OR C         FAIR      55  25  31 S8        29.91F

$$
NMZ519>523-262200-
CENTRAL VALLEYS/CENTRAL HIGHLANDS

CITY           SKY/WX    TMP DP  RH WIND       PRES   REMARKS
ALBUQUERQUE    CLOUDY    42  23  46 E26       29.98F
DOUBLE EAGLE   CLOUDY    41  21  45 E8        29.99F
MORIARTY ARPT  CLOUDY    27  21  77 SE15      30.07F WCI  15
CLINES CORNERS CLOUDY    21  18  88 SE14      30.01F WCI   8
BELEN          FAIR      47  22  36 E12       29.96F
SOCORRO          N/A     51  24  33 CALM      29.95F

$$
NMZ524>526-539-540-262200-
SOUTHCENTRAL MOUNTAINS

CITY           SKY/WX    TMP DP  RH WIND       PRES   REMARKS
RUIDOSO        NOT AVBL

$$
NMZ527>531-262200-
NORTHEAST HIGHLANDS/NORTHEAST PLAINS

CITY           SKY/WX    TMP DP  RH WIND       PRES   REMARKS
LAS VEGAS      CLOUDY    19  16  88 S20       30.04F FOG     WCI   3
RATON          CLOUDY    18  15  88 SW15      30.04F WCI   4
CLAYTON        FLURRIES  20  12  71 E9        30.16F WCI   9

$$
NMZ532>537-262200-
EASTCENTRAL PLAINS

CITY           SKY/WX    TMP DP  RH WIND       PRES   REMARKS
TUCUMCARI      CLOUDY    24  18  77 E8        30.21F WCI  15
CANNON AFB     NOT AVBL
CLOVIS AIRPORT CLOUDY    25  18  74 E14       30.20F WCI  13

$$
NMZ028-029-538-262200-
SOUTHEAST PLAINS

CITY           SKY/WX    TMP DP  RH WIND       PRES   REMARKS
ROSWELL        CLOUDY    33  19  56 E13       30.19F WCI  24
ARTESIA        CLOUDY    32  30  93 E9        30.20F WCI  24
CARLSBAD       CLOUDY    35  27  72 NE15      30.20F WCI  25
HOBBS          CLOUDY    28  19  69 NE14      30.23S WCI  17


$$


USA.gov is the U.S. government's official web portal to all federal, state and local government web resources and services.